Tracking 29892 objects as of 21-Nov-2024
HD Live streaming from Space Station
objects crossing your sky now

FLOCK 4Q 36

Track FLOCK 4Q 36 now!
10-day predictions
FLOCK 4Q 36 is classified as:


NORAD ID: 58274
Int'l Code: 2023-174U
Perigee: 486.4 km
Apogee: 498.9 km
Inclination: 97.4 °
Period: 94.3 minutes
Semi major axis: 6863 km
RCS: Unknown
Launch date: November 11, 2023
Source: United States (US)
Launch site: AIR FORCE WESTERN TEST RANGE (AFWTR)
Your satellite tracking list
Your tracking list is empty




NASA's NSSDC Master Catalog

Two Line Element Set (TLE):
1 58274U 23174U   24325.17000087  .00021783  00000-0  82851-3 0  9990
2 58274  97.4425  38.7154 0009119  53.9908 306.2175 15.26750014 57457
Source of the keplerian elements: AFSPC